Weather reports worldwide

Advertisment
Beirut, Lebanon (40100): temperature & dewpoint: 15.01.2020 18:00:00 - 21.01.2020 18:00:00 (EET)Beirut, Lebanon (40100): wind speed: 15.01.2020 18:00:00 - 21.01.2020 18:00:00 (EET)Beirut, Lebanon (40100): wind direction: 15.01.2020 18:00:00 - 21.01.2020 18:00:00 (EET)Beirut, Lebanon (40100): reduced air pressure: 15.01.2020 18:00:00 - 21.01.2020 18:00:00 (EET)Beirut, Lebanon (40100): visibility: 15.01.2020 18:00:00 - 21.01.2020 18:00:00 (EET)
Date & Time tt [°C] td [°C] ff [km/h] ff [kn] dd ppp [hPa] vv [km]
21.01.2020 18:00:00 - - - - - - -
21.01.2020 17:00:00 12,1 4,4 24 13 NNE 1020,2 30
21.01.2020 16:00:00 - - - - - - -
21.01.2020 15:00:00 - - - - - - -
21.01.2020 14:00:00 13,2 4,7 24 13 N 1019,8 20
21.01.2020 13:00:00 - - - - - - -
21.01.2020 12:00:00 - - - - - - -
21.01.2020 11:00:00 11,9 6,4 5 3 - 1020,8 30
21.01.2020 10:00:00 - - - - - - -
21.01.2020 09:00:00 - - - - - - -
21.01.2020 08:00:00 8,6 5,5 13 7 - 1020,7 40
21.01.2020 07:00:00 - - - - - - -
21.01.2020 06:00:00 - - - - - - -
21.01.2020 05:00:00 11,1 5,9 31 17 NNW 1019,9 30
21.01.2020 04:00:00 - - - - - - -
21.01.2020 03:00:00 - - - - - - -
21.01.2020 02:00:00 9,8 8,4 9 5 E 1021,2 40
21.01.2020 01:00:00 - - - - - - -
21.01.2020 00:00:00 - - - - - - -
20.01.2020 23:00:00 10,3 6,7 11 6 E 1023,0 40
20.01.2020 22:00:00 - - - - - - -
20.01.2020 21:00:00 - - - - - - -
20.01.2020 20:00:00 10,6 9,4 15 8 E 1023,2 10
20.01.2020 19:00:00 - - - - - - -
20.01.2020 18:00:00 - - - - - - -
20.01.2020 17:00:00 13,9 8,8 5 3 - 1022,1 10
20.01.2020 16:00:00 - - - - - - -
20.01.2020 15:00:00 - - - - - - -
20.01.2020 14:00:00 14,8 9,6 11 6 S 1021,8 20
20.01.2020 13:00:00 - - - - - - -
20.01.2020 12:00:00 - - - - - - -
20.01.2020 11:00:00 15,1 9,9 2 1 - 1023,7 30
20.01.2020 10:00:00 - - - - - - -
20.01.2020 09:00:00 - - - - - - -
20.01.2020 08:00:00 13,3 9,8 13 7 - 1022,7 20
20.01.2020 07:00:00 - - - - - - -
20.01.2020 06:00:00 - - - - - - -
20.01.2020 05:00:00 12,6 9,8 8 4 - 1021,9 10
20.01.2020 04:00:00 - - - - - - -
20.01.2020 03:00:00 - - - - - - -
20.01.2020 02:00:00 12,1 10,2 11 6 ESE 1022,1 20
20.01.2020 01:00:00 - - - - - - -
20.01.2020 00:00:00 - - - - - - -
19.01.2020 23:00:00 13,5 9,0 15 8 - 1021,6 20
19.01.2020 22:00:00 - - - - - - -
19.01.2020 21:00:00 - - - - - - -
19.01.2020 20:00:00 13,3 10,9 8 4 E 1020,9 10
19.01.2020 19:00:00 - - - - - - -
19.01.2020 18:00:00 - - - - - - -
19.01.2020 17:00:00 13,1 11,5 22 12 S 1018,6 10
19.01.2020 16:00:00 - - - - - - -
19.01.2020 15:00:00 - - - - - - -
19.01.2020 14:00:00 13,1 10,7 28 15 SSW 1017,1 10
19.01.2020 13:00:00 - - - - - - -
19.01.2020 12:00:00 - - - - - - -
19.01.2020 11:00:00 12,4 10,8 11 6 S 1017,5 10
19.01.2020 10:00:00 - - - - - - -
19.01.2020 09:00:00 - - - - - - -
19.01.2020 08:00:00 13,2 9,5 22 12 SW 1017,1 4,4
19.01.2020 07:00:00 - - - - - - -
19.01.2020 06:00:00 - - - - - - -
19.01.2020 05:00:00 11,8 9,7 5 3 - 1015,7 10
19.01.2020 04:00:00 - - - - - - -
19.01.2020 03:00:00 - - - - - - -
19.01.2020 02:00:00 12,7 9,2 4 2 - 1016,3 10
19.01.2020 01:00:00 - - - - - - -
19.01.2020 00:00:00 - - - - - - -
18.01.2020 23:00:00 13,1 8,2 5 3 - 1017,0 10
18.01.2020 22:00:00 - - - - - - -
18.01.2020 21:00:00 - - - - - - -
18.01.2020 20:00:00 13,0 9,1 8 4 ESE 1017,4 10
18.01.2020 19:00:00 - - - - - - -
18.01.2020 18:00:00 - - - - - - -
18.01.2020 17:00:00 14,6 7,2 2 1 N 1016,7 20
18.01.2020 16:00:00 - - - - - - -
18.01.2020 15:00:00 - - - - - - -
18.01.2020 14:00:00 14,9 9,1 5 3 - 1016,8 10
18.01.2020 13:00:00 - - - - - - -
18.01.2020 12:00:00 - - - - - - -
18.01.2020 11:00:00 13,6 9,7 8 4 ESE 1018,3 10
18.01.2020 10:00:00 - - - - - - -
18.01.2020 09:00:00 - - - - - - -
18.01.2020 08:00:00 12,1 9,8 4 2 - 1017,7 10
18.01.2020 07:00:00 - - - - - - -
18.01.2020 06:00:00 - - - - - - -
18.01.2020 05:00:00 11,8 9,9 11 6 SSE 1016,7 10
18.01.2020 04:00:00 - - - - - - -
18.01.2020 03:00:00 - - - - - - -
18.01.2020 02:00:00 13,1 9,9 13 7 ESE 1016,2 10
18.01.2020 01:00:00 - - - - - - -
18.01.2020 00:00:00 - - - - - - -
17.01.2020 23:00:00 13,3 7,8 9 5 ESE 1016,8 20
17.01.2020 22:00:00 - - - - - - -
17.01.2020 21:00:00 - - - - - - -
17.01.2020 20:00:00 13,1 10,8 8 4 ENE 1016,6 8
17.01.2020 19:00:00 - - - - - - -
17.01.2020 18:00:00 - - - - - - -
17.01.2020 17:00:00 15,8 7,9 5 3 E 1015,1 10
17.01.2020 16:00:00 - - - - - - -
17.01.2020 15:00:00 - - - - - - -
17.01.2020 14:00:00 15,9 9,6 15 8 N 1014,5 10
17.01.2020 13:00:00 - - - - - - -
17.01.2020 12:00:00 - - - - - - -
17.01.2020 11:00:00 17,9 7,1 13 7 WSW 1015,1 20
17.01.2020 10:00:00 - - - - - - -
17.01.2020 09:00:00 - - - - - - -
17.01.2020 08:00:00 16,6 3,0 11 6 - 1014,3 20
17.01.2020 07:00:00 - - - - - - -
17.01.2020 06:00:00 - - - - - - -
17.01.2020 05:00:00 15,3 5,3 5 3 - 1013,0 30
17.01.2020 04:00:00 - - - - - - -
17.01.2020 03:00:00 - - - - - - -
17.01.2020 02:00:00 16,2 10,4 9 5 N 1012,8 20
17.01.2020 01:00:00 - - - - - - -
17.01.2020 00:00:00 - - - - - - -
16.01.2020 23:00:00 20,3 0,8 16 9 E 1012,5 40
16.01.2020 22:00:00 - - - - - - -
16.01.2020 21:00:00 - - - - - - -
16.01.2020 20:00:00 20,7 2,2 15 8 - 1013,4 40
16.01.2020 19:00:00 - - - - - - -
16.01.2020 18:00:00 - - - - - - -
16.01.2020 17:00:00 18,9 15,4 9 5 - 1012,8 10
16.01.2020 16:00:00 - - - - - - -
16.01.2020 15:00:00 - - - - - - -
16.01.2020 14:00:00 21,6 9,3 18 10 NNE 1012,5 20
16.01.2020 13:00:00 - - - - - - -
16.01.2020 12:00:00 - - - - - - -
16.01.2020 11:00:00 17,7 12,0 9 5 - 1016,4 10
16.01.2020 10:00:00 - - - - - - -
16.01.2020 09:00:00 - - - - - - -
16.01.2020 08:00:00 13,5 11,6 4 2 - 1019,4 10
16.01.2020 07:00:00 - - - - - - -
16.01.2020 06:00:00 - - - - - - -
16.01.2020 05:00:00 14,0 8,9 5 3 - 1019,5 20
16.01.2020 04:00:00 - - - - - - -
16.01.2020 03:00:00 - - - - - - -
16.01.2020 02:00:00 14,7 6,1 5 3 E 1019,9 10
16.01.2020 01:00:00 - - - - - - -
16.01.2020 00:00:00 - - - - - - -
15.01.2020 23:00:00 14,3 6,9 8 4 E 1021,2 10
15.01.2020 22:00:00 - - - - - - -
15.01.2020 21:00:00 - - - - - - -
15.01.2020 20:00:00 15,2 8,3 4 2 E 1021,4 10
15.01.2020 19:00:00 - - - - - - -
15.01.2020 18:00:00 - - - - - - -

tt = temperature
td = dewpoint
ff = wind speed
dd = wind direction
ppp = reduced air pressure
vv = visibility

Next stations